User: anonymous   Login
Location: Unspecified
(0.0000°N, 0.0000°E)
Time: 08:38:03
(UTC+00:00)
Language:

UNISAT 6 - Orbit

View from above orbital plane
View from above orbital plane
View from above satellite
View from above satellite

Ground track
Ground track

The orbit data is extracted from the following two-line orbital elements,

1 40012U 14033C   19077.62257780 +.00000163 +00000-0 +31713-4 0  9998
2 40012 097.7717 308.1236 0059269 035.9910 324.5267 14.73938235255127
Epoch (UTC): 18 March 2019 14:56:30
Eccentricity: 0.0059269
inclination: 97.7717°
perigee height: 607 km
apogee height: 690 km
right ascension of ascending node: 308.1236°
argument of perigee: 35.9910°
revolutions per day: 14.73938235
mean anomaly at epoch: 324.5267°
orbit number at epoch: 25512

The dashed part of the orbit path shows where the satellite is in the earth's shadow,  

DLR